Weather History for Truckee-Tahoe, CA

Change the Weather History Date:

Tuesday, March 5, 2013

  Actual Average Record
Temperature  
Mean Temperature 37 °F -  
Max Temperature 46 °F 44 °F 65 °F (1986)
Min Temperature 28 °F 18 °F -3 °F (1974)
Degree Days  
Heating Degree Days 28    
Moisture  
Dew Point 26 °F    
Average Humidity 62    
Maximum Humidity 93    
Minimum Humidity 42    
Precipitation  
Precipitation 0.00 in - - ()
Sea Level Pressure  
Sea Level Pressure 29.91 in    
Wind  
Wind Speed 14 mph (SSW)    
Max Wind Speed 29 mph    
Max Gust Speed 41 mph    
Visibility 10 miles    
Events Snow    
Averages and records for this station are not official NWS values.
T = Trace of Precipitation, MM = Missing Value Source: NWS Daily Summary

Daily Weather History Graph

Daily Weather History Graph

Search for Another Location

Airport:

Trip Planner

Search our weather history database for the weather conditions in past years. The results will help you decide how hot, cold, wet, or windy it might be!

Date:

Astronomy

Mar. 05, 2013 Rise Set
Actual Time 6:26 AM PST 5:57 PM PST
Civil Twilight 6:00 AM PST 6:24 PM PST
Nautical Twilight 5:29 AM PST 6:55 PM PST
Astronomical Twilight 4:57 AM PST 7:26 PM PST
Moon 1:42 AM PST (3/5) 11:43 AM PST (3/5)
Length of Visible Light 12h 24m
Length of Day
11h 30m
Last Quarter, 39% of the Moon is Illuminated
Mar 5
Last Quarter
Mar 11
New
Mar 19
First Quarter
Mar 27
Full
Apr 2
Last Quarter

Hourly Weather History & Observations

Time (PST) Temp. Windchill Dew Point Humidity Pressure Visibility Wind Dir Wind Speed Gust Speed Precip Events Conditions
12:15 AM 28.4 °F 22.2 °F 26.6 °F 93% 30.07 in 10.0 mi ESE 5.8 mph - N/A   Clear
12:35 AM 30.2 °F 23.4 °F 26.6 °F 86% 30.06 in 10.0 mi SE 6.9 mph - N/A   Clear
12:55 AM 32.0 °F 27.5 °F 26.6 °F 80% 30.05 in 10.0 mi SSW 4.6 mph - N/A   Clear
1:15 AM 37.4 °F 29.3 °F 28.4 °F 70% 30.05 in 10.0 mi South 12.7 mph 21.9 mph N/A   Clear
1:35 AM 37.4 °F 30.3 °F 26.6 °F 65% 30.04 in 10.0 mi South 10.4 mph 21.9 mph N/A   Clear
1:55 AM 37.4 °F 29.8 °F 26.6 °F 65% 30.04 in 10.0 mi SSW 11.5 mph 16.1 mph N/A   Clear
2:15 AM 37.4 °F 30.3 °F 26.6 °F 65% 30.03 in 10.0 mi SSW 10.4 mph 16.1 mph N/A   Clear
2:35 AM 37.4 °F 32.8 °F 26.6 °F 65% 30.02 in 10.0 mi SSW 5.8 mph 16.1 mph N/A   Clear
2:55 AM 37.4 °F 27.8 °F 26.6 °F 65% 30.01 in 10.0 mi SSW 17.3 mph 27.6 mph N/A   Clear
3:15 AM 37.4 °F 28.9 °F 26.6 °F 65% 30.00 in 10.0 mi SSW 13.8 mph - N/A   Clear
3:35 AM 37.4 °F 27.8 °F 26.6 °F 65% 30.00 in 10.0 mi SSW 17.3 mph 26.5 mph N/A   Clear
3:55 AM 37.4 °F 29.3 °F 26.6 °F 65% 30.01 in 10.0 mi SSW 12.7 mph 23.0 mph N/A   Clear
4:15 AM 37.4 °F 27.8 °F 26.6 °F 65% 30.01 in 10.0 mi SW 17.3 mph 26.5 mph N/A   Partly Cloudy
4:35 AM 37.4 °F 27.8 °F 26.6 °F 65% 30.01 in 10.0 mi SSW 17.3 mph 25.3 mph N/A   Clear
4:55 AM 37.4 °F 28.9 °F 26.6 °F 65% 30.01 in 10.0 mi SSW 13.8 mph 19.6 mph N/A   Clear
5:15 AM 37.4 °F 29.3 °F 26.6 °F 65% 30.01 in 10.0 mi SW 12.7 mph 23.0 mph N/A   Clear
5:35 AM 37.4 °F 29.8 °F 26.6 °F 65% 30.01 in 10.0 mi SSW 11.5 mph - N/A   Clear
6:45 AM 37.4 °F 28.5 °F 26.6 °F 65% 29.99 in 10.0 mi SW 15.0 mph 20.7 mph N/A   Mostly Cloudy
7:45 AM 41.0 °F 34.3 °F 26.6 °F 57% 29.99 in 10.0 mi SSW 11.5 mph 19.6 mph N/A   Mostly Cloudy
8:50 AM 41.0 °F 32.2 °F 28.4 °F 61% 30.00 in 10.0 mi SW 18.4 mph 24.2 mph N/A   Mostly Cloudy
9:45 AM 44.6 °F 38.1 °F 28.4 °F 53% 29.99 in 10.0 mi SSW 13.8 mph 26.5 mph N/A   Mostly Cloudy
10:45 AM 46.4 °F 40.1 °F 28.4 °F 50% 29.96 in 10.0 mi SSW 15.0 mph 25.3 mph N/A   Mostly Cloudy
11:45 AM 44.6 °F 36.9 °F 28.4 °F 53% 29.94 in 10.0 mi SSW 18.4 mph 26.5 mph N/A   Mostly Cloudy
12:45 PM 44.6 °F 36.4 °F 26.6 °F 49% 29.91 in 10.0 mi SSW 20.7 mph 34.5 mph N/A   Mostly Cloudy
3:45 PM 41.0 °F 32.8 °F 26.6 °F 57% 29.85 in 10.0 mi SSW 16.1 mph 28.8 mph N/A   Mostly Cloudy
3:55 PM 42.8 °F 33.8 °F 24.8 °F 49% 29.86 in 10.0 mi South 21.9 mph 33.4 mph N/A   Mostly Cloudy
4:45 PM 41.0 °F 31.6 °F 26.6 °F 57% 29.84 in 10.0 mi SSW 20.7 mph 36.8 mph N/A   Mostly Cloudy
4:55 PM 39.2 °F 30.8 °F 26.6 °F 61% 29.84 in 10.0 mi SW 15.0 mph 28.8 mph N/A   Mostly Cloudy
5:15 PM 39.2 °F 29.3 °F 26.6 °F 61% 29.84 in 10.0 mi SSW 20.7 mph 40.3 mph N/A   Scattered Clouds
5:35 PM 39.2 °F 29.8 °F 26.6 °F 61% 29.84 in 10.0 mi SSW 18.4 mph 33.4 mph N/A   Mostly Cloudy
5:55 PM 39.2 °F 28.7 °F 24.8 °F 56% 29.85 in 10.0 mi South 23.0 mph 31.1 mph N/A   Mostly Cloudy
6:15 PM 37.4 °F 26.9 °F 24.8 °F 60% 29.84 in 10.0 mi SSW 20.7 mph 38.0 mph N/A   Mostly Cloudy
6:35 PM 37.4 °F 25.9 °F 24.8 °F 60% 29.84 in 10.0 mi SSW 25.3 mph 31.1 mph N/A   Mostly Cloudy
6:55 PM 37.4 °F 25.2 °F 24.8 °F 60% 29.82 in 10.0 mi South 28.8 mph 39.1 mph N/A   Partly Cloudy
7:15 PM 37.4 °F 28.5 °F 24.8 °F 60% 29.81 in 10.0 mi SSW 15.0 mph 33.4 mph N/A   Clear
7:35 PM 37.4 °F 26.6 °F 19.4 °F 48% 29.80 in 10.0 mi SSW 21.9 mph 36.8 mph N/A   Clear
7:55 PM 39.2 °F 29.3 °F 19.4 °F 45% 29.79 in 10.0 mi South 20.7 mph 29.9 mph N/A   Clear
8:15 PM 39.2 °F 30.2 °F 17.6 °F 42% 29.80 in 10.0 mi SSW 17.3 mph 29.9 mph N/A   Clear
8:35 PM 37.4 °F 26.1 °F 19.4 °F 48% 29.80 in 10.0 mi SSW 24.2 mph 29.9 mph N/A   Clear
8:55 PM 37.4 °F 28.5 °F 23.0 °F 56% 29.80 in 10.0 mi South 15.0 mph 27.6 mph N/A   Clear
9:15 PM 37.4 °F 27.8 °F 23.0 °F 56% 29.80 in 10.0 mi South 17.3 mph 33.4 mph N/A   Partly Cloudy
9:35 PM 37.4 °F 27.5 °F 24.8 °F 60% 29.81 in 10.0 mi South 18.4 mph 24.2 mph N/A   Mostly Cloudy
9:55 PM 37.4 °F 28.9 °F 24.8 °F 60% 29.80 in 10.0 mi South 13.8 mph 25.3 mph N/A   Overcast
10:15 PM 37.4 °F 29.3 °F 26.6 °F 65% 29.78 in 10.0 mi South 12.7 mph 21.9 mph N/A   Overcast
10:35 PM 37.4 °F 26.9 °F 26.6 °F 65% 29.77 in 10.0 mi SSW 20.7 mph 33.4 mph N/A   Overcast
10:55 PM 37.4 °F 25.2 °F 26.6 °F 65% 29.75 in 10.0 mi SSW 28.8 mph 40.3 mph N/A   Mostly Cloudy
11:15 PM 37.4 °F 26.4 °F 26.6 °F 65% 29.76 in 7.0 mi SSW 23.0 mph 34.5 mph N/A   Overcast
11:35 PM 35.6 °F 25.9 °F 28.4 °F 75% 29.75 in 4.0 mi SSW 16.1 mph 34.5 mph N/A   Overcast
11:55 PM 33.8 °F 21.0 °F 28.4 °F 81% 29.76 in 1.8 mi SW 25.3 mph 41.4 mph N/A Snow Light Snow